Adana Incirlik AFB, Turkey

11:21 PM +03 on April 23, 2017 (GMT +0300)
Incirlik Air Base

Weather History for LTAG - April, 2013

Change the Weather History Date:

Friday, April 12, 2013

  Actual Average Record
Temperature  
Mean Temperature 63 °F -  
Max Temperature 75 °F 78 °F 91 °F (1998)
Min Temperature 51 °F 57 °F 35 °F (1997)
Degree Days  
Heating Degree Days 2    
Growing Degree Days 13 (Base 50)    
Moisture  
Dew Point 52 °F    
Average Humidity 72    
Maximum Humidity 100    
Minimum Humidity 29    
Precipitation  
Precipitation 0.00 in - - ()
Sea Level Pressure  
Sea Level Pressure 29.99 in    
Wind  
Wind Speed 4 mph ()    
Max Wind Speed 10 mph    
Max Gust Speed -    
Visibility 6.2 miles    
Events      
Averages and records for this station are not official NWS values.
T = Trace of Precipitation, MM = Missing Value Source: Averaged Metar Reports

Daily Weather History Graph

Daily Weather History Graph

Search for Another Location

Airport or City:

Trip Planner

Search our weather history database for the weather conditions in past years. The results will help you decide how hot, cold, wet, or windy it might be!

Date:

Astronomy

Apr. 12, 2013 Rise Set
Actual Time 6:08 AM EEST 7:10 PM EEST
Civil Twilight 5:41 AM EEST 7:37 PM EEST
Nautical Twilight 5:10 AM EEST 8:08 PM EEST
Astronomical Twilight 4:37 AM EEST 8:41 PM EEST
Moon 7:07 AM EEST (4/12) 9:18 PM EEST (4/12)
Length of Visible Light 13h 55m
Length of Day
13h 02m
Waxing Crescent, 4% of the Moon is Illuminated
Apr 12
Waxing Crescent
Apr 18
First Quarter
Apr 25
Full
May 2
Last Quarter
May 10
New

Hourly Weather History & Observations

Time (EEST) Temp. Dew Point Humidity Pressure Visibility Wind Dir Wind Speed Gust Speed Precip Events Conditions
12:20 AM 55.4 °F 53.6 °F 94% 29.98 in 6.2 mi NE 2.3 mph - N/A   Scattered Clouds
12:50 AM 53.6 °F 51.8 °F 94% 29.98 in 6.2 mi NE 6.9 mph - N/A   Scattered Clouds
1:20 AM 53.6 °F 51.8 °F 94% 29.98 in 6.2 mi NNE 5.8 mph - N/A   Scattered Clouds
1:50 AM 51.8 °F 51.8 °F 100% 29.98 in 6.2 mi NE 6.9 mph - N/A   Scattered Clouds
2:20 AM 53.6 °F 51.8 °F 94% 29.98 in 6.2 mi NE 4.6 mph - N/A   Scattered Clouds
2:50 AM 53.6 °F 51.8 °F 94% 29.98 in 6.2 mi NE 6.9 mph - N/A   Scattered Clouds
3:00 AM 53 °F 51 °F 91% 29.98 in 6 mi NE 6.9 mph - -   Partly Cloudy
3:20 AM 51.8 °F 50.0 °F 94% 29.98 in 6.2 mi NE 3.5 mph - N/A   Scattered Clouds
3:50 AM 51.8 °F 50.0 °F 94% 29.98 in 6.2 mi ENE 5.8 mph - N/A   Scattered Clouds
4:20 AM 51.8 °F 50.0 °F 94% 29.98 in 6.2 mi NE 5.8 mph - N/A   Scattered Clouds
4:50 AM 51.8 °F 50.0 °F 94% 29.98 in 6.2 mi ENE 4.6 mph - N/A   Scattered Clouds
5:20 AM 51.8 °F 50.0 °F 94% 29.98 in 6.2 mi NNE 5.8 mph - N/A   Scattered Clouds
5:50 AM 53.6 °F 51.8 °F 94% 29.98 in 6.2 mi North 3.5 mph - N/A   Scattered Clouds
6:20 AM 53.6 °F 51.8 °F 94% 29.98 in 6.2 mi ENE 3.5 mph - N/A   Scattered Clouds
6:50 AM 55.4 °F 51.8 °F 88% 29.98 in 6.2 mi North 3.5 mph - N/A   Scattered Clouds
7:20 AM 57.2 °F 53.6 °F 88% 29.98 in 6.2 mi West 2.3 mph - N/A   Scattered Clouds
7:50 AM 59.0 °F 55.4 °F 88% 29.98 in 6.2 mi NNW 3.5 mph - N/A   Scattered Clouds
8:20 AM 60.8 °F 57.2 °F 88% 29.98 in 6.2 mi NNW 3.5 mph - N/A   Scattered Clouds
8:50 AM 60.8 °F 59.0 °F 94% 30.01 in 6.2 mi NW 3.5 mph - N/A   Scattered Clouds
9:00 AM 62 °F 59 °F 85% 30.01 in 6 mi NW 3.5 mph - -   Scattered Clouds
9:20 AM 62.6 °F 57.2 °F 82% 30.01 in 6.2 mi SW 2.3 mph - N/A   Scattered Clouds
9:50 AM 64.4 °F 55.4 °F 73% 30.01 in 6.2 mi South 3.5 mph - N/A   Scattered Clouds
10:20 AM 64.4 °F 55.4 °F 73% 30.01 in 6.2 mi WNW 2.3 mph - N/A   Scattered Clouds
10:50 AM 66.2 °F 55.4 °F 68% 30.01 in 6.2 mi Calm Calm - N/A   Scattered Clouds
11:20 AM 68.0 °F 53.6 °F 60% 30.01 in 6.2 mi WSW 3.5 mph - N/A   Scattered Clouds
11:50 AM 68.0 °F 51.8 °F 56% 30.01 in 6.2 mi SSW 2.3 mph - N/A   Scattered Clouds
12:20 PM 69.8 °F 51.8 °F 53% 30.01 in 6.2 mi ESE 2.3 mph - N/A   Scattered Clouds
12:50 PM 71.6 °F 51.8 °F 50% 30.01 in 6.2 mi SSE 3.5 mph - N/A   Scattered Clouds
1:20 PM 71.6 °F 50.0 °F 46% 29.98 in 6.2 mi SE 5.8 mph - N/A   Scattered Clouds
1:50 PM 73.4 °F 48.2 °F 41% 29.98 in 6.2 mi SSW 2.3 mph - N/A   Scattered Clouds
2:20 PM 73.4 °F 46.4 °F 38% 29.98 in 6.2 mi South 3.5 mph - N/A   Scattered Clouds
2:50 PM 73.4 °F 48.2 °F 41% 29.95 in 6.2 mi SSE 5.8 mph - N/A   Scattered Clouds
3:00 PM 73 °F 47 °F 29% 29.96 in 6 mi SSE 5.8 mph - -   Scattered Clouds
3:20 PM 75.2 °F 46.4 °F 36% 29.95 in 6.2 mi East 2.3 mph - N/A   Scattered Clouds
3:50 PM 75.2 °F 46.4 °F 36% 29.95 in 6.2 mi WSW 3.5 mph - N/A   Scattered Clouds
4:20 PM 73.4 °F 48.2 °F 41% 29.95 in 6.2 mi South 4.6 mph - N/A   Scattered Clouds
4:50 PM 73.4 °F 48.2 °F 41% 29.95 in 6.2 mi South 1.2 mph - N/A   Scattered Clouds
5:20 PM 73.4 °F 53.6 °F 50% 29.95 in 6.2 mi SSW 10.4 mph - N/A   Scattered Clouds
5:50 PM 71.6 °F 51.8 °F 50% 29.95 in 6.2 mi WSW 10.4 mph - N/A   Scattered Clouds
6:20 PM 69.8 °F 51.8 °F 53% 29.95 in 6.2 mi SW 10.4 mph - N/A   Scattered Clouds
6:50 PM 66.2 °F 51.8 °F 60% 29.95 in 6.2 mi SW 9.2 mph - N/A   Scattered Clouds
7:20 PM 64.4 °F 51.8 °F 64% 29.98 in 6.2 mi SW 6.9 mph - N/A   Scattered Clouds
7:50 PM 64.4 °F 50.0 °F 59% 29.98 in 6.2 mi SSW 3.5 mph - N/A   Scattered Clouds
8:20 PM 64.4 °F 51.8 °F 64% 29.98 in 6.2 mi South 4.6 mph - N/A   Scattered Clouds
8:50 PM 62.6 °F 51.8 °F 68% 30.01 in - South 2.3 mph - N/A   Clear
9:00 PM 63 °F 51 °F 56% 30.01 in 6 mi South 2.3 mph - -  
9:20 PM 62.6 °F 53.6 °F 72% 30.01 in - SSW 2.3 mph - N/A   Clear
9:50 PM 60.8 °F 53.6 °F 77% 30.01 in - SSE 2.3 mph - N/A   Clear
10:20 PM 60.8 °F 51.8 °F 72% 30.01 in - North 2.3 mph - N/A   Clear
10:50 PM 55.4 °F 51.8 °F 88% 30.01 in - NNE 4.6 mph - N/A   Clear
11:20 PM 55.4 °F 53.6 °F 94% 30.04 in - NE 6.9 mph - N/A   Clear
11:50 PM 55.4 °F 53.6 °F 94% 30.04 in - ENE 5.8 mph - N/A   Clear